Espace membre
Imprimable
Challenges > Delhalle - Bousval, 06/03/2016, BEL - Le Cross de Bousval
Liste des rapports > Delhalle - 15km - Classement
Recherche: Page: [1]
58 Entrées
 
Les réclamations ne sont plus acceptées, les résultats sont considérés comme définitifs.
RangNrNomAgeIOCLigueEquipeRéelTempsTkmMoy.ScrPtsLocalité
1.714MAILIER CHRISTIAN60BELCRACESM1:05:381:05:434:23 13.7078811ROUX
2.3622BELMILOUD MOHAMED66BEL1:05:531:05:554:24 13.6682804
3.74BROUWIER PIERRE64BELHERVE1:06:081:06:134:25 13.5992794GRAND RECHAIN
4.3733PIACENTINI MARCO60ITAESM1:08:191:08:194:34 13.18118745GOZEE
5.3487CASTIAUX JO63BELVALLEE DU HOUR1:09:571:10:014:41 12.86138708
6.22DE MASI GIANNI63ITAFLEU1:10:501:10:514:44 12.71155685WANFERCEE BAULET
7.3740FURNARI ROBERTO60ITAJET TUBIZE1:10:511:10:534:44 12.70156684TUBIZE
8.465BOSKIN JEAN-CLAUDE61BELLES IDYLLES1:11:031:11:174:46 12.63162677STAVELOT
9.246VANTSIOTIS ANASTHASE63FRA1:11:351:11:424:47 12.55168666BARR
10.3482MERTENS HUGO62BEL1:13:191:13:394:55 12.22193626
11.296DESSEILLE ERNEST62BELRCNAMUR1:14:061:14:314:59 12.08202610WEPION
12.3603VAN EERDEWEGH ANDRE63BEL1:13:541:14:384:59 12.06205610
13.580HOMBROUX MARCEL63BELFCHAHANNUT JOGGING1:14:281:14:505:00 12.03207602MONTENAKEN
14.426QUINET BERNARD64BELFLEU1:15:011:15:115:01 11.97210592GILLY
15.464VIDICK JEAN-LUC63BELMYSTERE1:15:141:15:215:02 11.95214586BRUXELLES
16.517KOLP CHRISTIAN62BELET ENGHIEN1:15:371:15:385:03 11.90221577HORRUES
17.194AUBERT SERGE61BEL1:15:181:15:485:04 11.87224579GERPINNES
18.146VAN NEVEL FRANS62BELBEHO1:14:261:18:005:12 11.54254573BRUGGE
19.3248CARPANTIER JEAN JACQUES61BELSWIFT R1:18:441:19:095:17 11.37278501
20.3485GHYSEN ANDRE61BEL1:18:581:19:105:17 11.37280496
21.3605LECERF JEAN LUC60BELJOGGANS1:20:181:21:005:24 11.11309461
22.49DEGROOT JEAN68BELFCHAHANNUT JOG1:21:131:21:195:26 11.07313447HANNUT
23.755VAN HEULENBERGHE FRANK60BEL1:21:231:21:465:28 11.01319441GENT
24.597MATHIEU JEAN-PIERRE60BELESM1:21:241:21:475:28 11.01320441MONTIGNY-LE-TILLEUL
25.3978VERBEEK JEAN-LUC62BEL1:21:361:22:145:29 10.95326434BOUSVAL
26.3461GILLES ARMAND60BEL1:22:521:23:385:35 10.76346407
27.3710HEMERYCK PIERRE60BELKURISTO1:23:421:23:525:36 10.73348395BRUXELLES
28.3685BOUDART JEAN PAUL64BELKURISTO1:24:371:25:055:41 10.58362375WOLUWE-SAINT-LAMBERT
29.400CHAVATTE ROGER68BELACG1:24:251:25:085:41 10.57364376SCHENDELBEKE
30.424DRIESSENS PIERRE69BELSERUNNER1:25:121:25:185:42 10.55366366SERAING
31.3437BISKOS VANGELIS61BEL1:25:011:25:245:42 10.54367367
32.523MACHADO ANTONIO64BEL1:25:151:26:005:44 10.47375359GEMBLOUX
33.3661ROSE FRANKIE62BEL1:26:511:27:255:50 10.30389332SART DAMES AVELINES
34.3979MASSART VICTOR63BELBOUFFIOLS1:27:111:28:035:53 10.22397323COUILLET
35.643LEROUX JEAN-PIERRE67FRAJOGGANS1:28:031:28:385:55 10.16411304STROMBEEK-BEVER
36.57ZEGERS ROLLAND60BELGRIM1:27:591:28:395:55 10.15412304EVERE
37.251GODEFRIDI THIERRY65BELMARATHONIEN1:28:531:29:516:00 10.02428284RIXENSART
38.3474VOKAR ETIENNE69BELIRUN WATERLOO1:29:401:30:106:01 9.98433272
39.692ROBERT MICHEL66BELBOUFFIOLS1:30:351:30:596:04 9.89440257GERPINNES
40.3219KAUFMANN ALAIN64BELJOGGANS1:30:411:31:396:07 9.82447252
41.3459BANDIN MARC60BELJAMES1:31:231:32:106:09 9.77456238COURT SAINT ETIENNE
42.301QUINET JEAN PAUL66BELFLEU1:32:021:32:176:10 9.75459229GILLY
43.494MATHY JEAN-LUC63BELRCNAMUR1:31:471:32:266:10 9.74460231NAMUR
44.59LIEGEOIS J.LOUIS64BELLAC1:31:541:32:466:12 9.70462229HEVERLEE
45.3708CLEMENT JACQUES65BELSPTWAVRE1:33:091:33:556:16 9.58471210COURT-SAINT-ETIENNE
46.793DELEU GABRIEL65BELEPIDEMIE1:33:121:33:596:16 9.58472208REMICOURT-HODEIGE
47.155AKKERMANS FRANCOIS66BEL1:34:071:34:296:18 9.53480193BRASSCHAAT
48.830VAN BOVEN EDDY61BELRUN EVERGEM1:34:391:34:466:20 9.50481187SCHOONAARDE
49.440ETIENNE CHRISTIAN65BELRCNAMUR1:35:271:35:576:24 9.38492171LEUZE-LONGCHAMPS
50.3491KEYMOLEN ROGER62BELJC OETINGEN1:36:331:36:406:27 9.31495158
51.232MANFROID POL69BELJOGGANS1:36:221:36:576:28 9.28497158BRUXELLES
52.3497PAULUS MARC61BELJC OETINGEN1:38:021:38:106:33 9.17504137
53.869GENOT YVES60BELENJAMBEE1:38:181:38:576:36 9.10508131KRAAINEM
54.257LUKOJ-NAWEJ JIM64BEL1:38:171:39:036:37 9.09509131BRUXELLES
55.385BLOMMAERT EDWARD63BELAVN1:41:441:42:356:51 8.7752983TURNHOUT
56.3296DUPONT PIERRE65BELWAL COURSE1:48:211:49:137:17 8.245429
57.867DESTRES MICHAEL66BELJACO1:52:571:53:297:34 7.935474CHIMAY
58.33GEORGES FRANCOIS60BEL2:02:002:02:378:11 7.345503IXELLES
DNF: abandon; DSQ: disqualifié; Vitesse en km/h
Page: [1]